Tiempo cada hora Alhos Vedros

Hoy, 27 Julio, Martes

Tiempo Temperatura Precipitaciones Viento Presión Humedad
00:00 +18°C° 0 mm 4 mps 761 mmHg 87%
01:00 +18°C° 0 mm 4 mps 761 mmHg 88%
02:00 +17°C° 0 mm 4 mps 761 mmHg 89%
03:00 +17°C° 0 mm 4 mps 761 mmHg 90%
04:00 +17°C° 0 mm 3 mps 761 mmHg 91%
05:00 +17°C° 0 mm 3 mps 761 mmHg 91%
06:00 +20°C° 0 mm 4 mps 761 mmHg 77%
07:00 +22°C° 0 mm 4 mps 761 mmHg 64%
08:00 +26°C° 0 mm 5 mps 761 mmHg 50%
09:00 +28°C° 0 mm 5 mps 760 mmHg 44%
10:00 +30°C° 0 mm 5 mps 760 mmHg 38%
11:00 +33°C° 0 mm 6 mps 760 mmHg 32%
12:00 +33°C° 0 mm 6 mps 760 mmHg 32%
13:00 +33°C° 0 mm 7 mps 759 mmHg 31%
14:00 +33°C° 0 mm 8 mps 759 mmHg 31%
15:00 +31°C° 0 mm 8 mps 759 mmHg 36%
16:00 +29°C° 0 mm 8 mps 759 mmHg 41%
17:00 +27°C° 0 mm 8 mps 759 mmHg 46%
18:00 +24°C° 0 mm 8 mps 760 mmHg 56%
19:00 +22°C° 0 mm 7 mps 760 mmHg 65%
20:00 +20°C° 0 mm 6 mps 760 mmHg 74%
21:00 +20°C° 0 mm 6 mps 760 mmHg 76%
22:00 +20°C° 0 mm 6 mps 760 mmHg 78%
23:00 +19°C° 0 mm 5 mps 760 mmHg 80%

Mañana, 28 Julio, Miércoles

Tiempo Temperatura Precipitaciones Viento Presión Humedad
00:00 +19°C° 0 mm 5 mps 760 mmHg 82%
01:00 +19°C° 0 mm 5 mps 759 mmHg 85%
02:00 +18°C° 0 mm 4 mps 759 mmHg 87%
03:00 +18°C° 0 mm 4 mps 759 mmHg 89%
04:00 +18°C° 0 mm 4 mps 759 mmHg 90%
05:00 +18°C° 0 mm 4 mps 759 mmHg 92%
06:00 +20°C° 0 mm 4 mps 759 mmHg 80%
07:00 +22°C° 0 mm 5 mps 759 mmHg 68%
08:00 +25°C° 0 mm 5 mps 759 mmHg 57%
09:00 +27°C° 0 mm 6 mps 759 mmHg 50%
10:00 +29°C° 0 mm 6 mps 759 mmHg 44%
11:00 +32°C° 0 mm 7 mps 759 mmHg 38%
12:00 +32°C° 0 mm 7 mps 759 mmHg 36%
13:00 +32°C° 0 mm 7 mps 759 mmHg 35%
14:00 +32°C° 0 mm 8 mps 758 mmHg 34%
15:00 +31°C° 0 mm 8 mps 758 mmHg 38%
16:00 +28°C° 0 mm 8 mps 759 mmHg 42%
17:00 +27°C° 0 mm 8 mps 759 mmHg 46%
18:00 +23°C° 0 mm 8 mps 759 mmHg 57%
19:00 +21°C° 0 mm 7 mps 759 mmHg 68%
20:00 +19°C° 0 mm 6 mps 760 mmHg 79%
21:00 +19°C° 0 mm 6 mps 760 mmHg 81%
22:00 +17°C° 0 mm 6 mps 760 mmHg 84%
23:00 +17°C° 0 mm 5 mps 760 mmHg 86%

Pasado mañana, 29 Julio, Jueves

Tiempo Temperatura Precipitaciones Viento Presión Humedad
00:00 +17°C° 0 mm 5 mps 760 mmHg 87%
01:00 +17°C° 0 mm 5 mps 759 mmHg 88%
02:00 +16°C° 0 mm 5 mps 759 mmHg 89%
03:00 +16°C° 0 mm 5 mps 760 mmHg 89%
04:00 +16°C° 0 mm 5 mps 760 mmHg 90%
05:00 +16°C° 0 mm 5 mps 760 mmHg 90%
06:00 +19°C° 0 mm 5 mps 760 mmHg 78%
07:00 +21°C° 0 mm 5 mps 760 mmHg 67%
08:00 +23°C° 0 mm 6 mps 760 mmHg 55%
09:00 +26°C° 0 mm 6 mps 761 mmHg 48%
10:00 +28°C° 0 mm 6 mps 761 mmHg 41%
11:00 +30°C° 0 mm 7 mps 761 mmHg 35%
12:00 +30°C° 0 mm 7 mps 760 mmHg 34%
13:00 +30°C° 0 mm 7 mps 760 mmHg 33%
14:00 +31°C° 0 mm 8 mps 760 mmHg 32%
15:00 +29°C° 0 mm 8 mps 760 mmHg 37%
16:00 +27°C° 0 mm 8 mps 760 mmHg 41%
17:00 +24°C° 0 mm 8 mps 760 mmHg 46%
18:00 +22°C° 0 mm 8 mps 761 mmHg 58%
19:00 +20°C° 0 mm 7 mps 761 mmHg 70%
20:00 +17°C° 0 mm 7 mps 762 mmHg 82%
21:00 +17°C° 0 mm 6 mps 762 mmHg 84%
22:00 +17°C° 0 mm 5 mps 762 mmHg 86%
23:00 +17°C° 0 mm 4 mps 762 mmHg 89%

30 Julio, Viernes

Tiempo Temperatura Precipitaciones Viento Presión Humedad
00:00 +16°C° 0 mm 5 mps 762 mmHg 89%
01:00 +17°C° 0 mm 5 mps 761 mmHg 89%
02:00 +17°C° 0 mm 5 mps 761 mmHg 89%
03:00 +17°C° 0 mm 5 mps 761 mmHg 88%
04:00 +17°C° 0 mm 5 mps 761 mmHg 87%
05:00 +19°C° 0 mm 5 mps 761 mmHg 87%
06:00 +21°C° 0 mm 6 mps 762 mmHg 77%
07:00 +23°C° 0 mm 6 mps 762 mmHg 66%
08:00 +26°C° 0 mm 7 mps 762 mmHg 56%
09:00 +28°C° 0 mm 7 mps 762 mmHg 50%
10:00 +29°C° 0 mm 7 mps 762 mmHg 44%
11:00 +32°C° 0 mm 7 mps 762 mmHg 38%
12:00 +32°C° 0 mm 7 mps 762 mmHg 38%
13:00 +32°C° 0 mm 8 mps 761 mmHg 37%
14:00 +32°C° 0 mm 8 mps 761 mmHg 37%
15:00 +29°C° 0 mm 8 mps 761 mmHg 42%
16:00 +28°C° 0 mm 8 mps 761 mmHg 47%
17:00 +26°C° 0 mm 8 mps 762 mmHg 53%
18:00 +23°C° 0 mm 8 mps 762 mmHg 63%
19:00 +21°C° 0 mm 7 mps 762 mmHg 73%
20:00 +19°C° 0 mm 6 mps 762 mmHg 84%
21:00 +19°C° 0 mm 6 mps 762 mmHg 84%
22:00 +19°C° 0 mm 6 mps 762 mmHg 83%
23:00 +17°C° 0 mm 7 mps 762 mmHg 83%

31 Julio, Sábado

Tiempo Temperatura Precipitaciones Viento Presión Humedad
00:00 +17°C° 0 mm 7 mps 762 mmHg 83%
01:00 +17°C° 0 mm 7 mps 762 mmHg 82%
02:00 +17°C° 0 mm 7 mps 762 mmHg 82%
03:00 +17°C° 0 mm 7 mps 762 mmHg 82%
04:00 +17°C° 0 mm 7 mps 762 mmHg 83%
05:00 +16°C° 0 mm 7 mps 762 mmHg 84%
06:00 +18°C° 0 mm 7 mps 762 mmHg 73%
07:00 +21°C° 0 mm 8 mps 762 mmHg 62%
08:00 +23°C° 0 mm 8 mps 762 mmHg 52%
09:00 +24°C° 0 mm 9 mps 762 mmHg 45%
10:00 +26°C° 0 mm 9 mps 763 mmHg 39%
11:00 +28°C° 0 mm 9 mps 763 mmHg 33%
12:00 +28°C° 0 mm 9 mps 762 mmHg 31%
13:00 +28°C° 0 mm 10 mps 762 mmHg 30%
14:00 +28°C° 0 mm 10 mps 762 mmHg 29%
15:00 +27°C° 0 mm 10 mps 762 mmHg 33%
16:00 +24°C° 0 mm 10 mps 762 mmHg 38%
17:00 +23°C° 0 mm 10 mps 762 mmHg 42%
18:00 +22°C° 0 mm 9 mps 763 mmHg 52%
19:00 +19°C° 0 mm 9 mps 763 mmHg 63%
20:00 +17°C° 0 mm 9 mps 763 mmHg 73%
21:00 +17°C° 0 mm 8 mps 763 mmHg 74%
22:00 +17°C° 0 mm 8 mps 763 mmHg 75%
23:00 +16°C° 0 mm 8 mps 763 mmHg 76%

1 Agosto, Domingo

Tiempo Temperatura Precipitaciones Viento Presión Humedad
00:00 +16°C° 0 mm 7 mps 763 mmHg 77%
01:00 +16°C° 0 mm 7 mps 763 mmHg 77%
02:00 +16°C° 0 mm 7 mps 762 mmHg 78%
03:00 +16°C° 0 mm 7 mps 763 mmHg 78%
04:00 +16°C° 0 mm 7 mps 763 mmHg 78%
05:00 +16°C° 0 mm 7 mps 763 mmHg 79%
06:00 +18°C° 0 mm 8 mps 763 mmHg 69%
07:00 +21°C° 0 mm 8 mps 763 mmHg 60%
08:00 +22°C° 0 mm 8 mps 763 mmHg 50%
09:00 +24°C° 0 mm 8 mps 763 mmHg 44%
10:00 +26°C° 0 mm 8 mps 762 mmHg 38%
11:00 +28°C° 0 mm 9 mps 762 mmHg 32%
12:00 +28°C° 0 mm 9 mps 762 mmHg 33%
13:00 +28°C° 0 mm 9 mps 762 mmHg 33%
14:00 +28°C° 0 mm 9 mps 762 mmHg 33%
15:00 +27°C° 0 mm 9 mps 762 mmHg 38%
16:00 +24°C° 0 mm 9 mps 761 mmHg 42%
17:00 +23°C° 0 mm 9 mps 761 mmHg 46%
18:00 +22°C° 0 mm 8 mps 762 mmHg 57%
19:00 +20°C° 0 mm 8 mps 762 mmHg 67%
20:00 +18°C° 0 mm 8 mps 762 mmHg 77%
21:00 +18°C° 0 mm 8 mps 762 mmHg 79%
22:00 +18°C° 0 mm 8 mps 762 mmHg 80%
23:00 +18°C° 0 mm 7 mps 761 mmHg 82%
Mostrar más

Necesitamos Su Consentimiento

Meteoprog y nuestros Proveedores de Servicios pueden almacenar y acceder a sus datos personales como cookies, identificadores de dispositivo u otras tecnologías similares de su dispositivo y procesar dichos datos para personalizar contenido y anuncios, además de ofrecer funciones de redes sociales y analizar el tráfico.

  • Almacenar y/o acceder a información en su dispositivo

    Se puede almacenar o acceder a cookies, identificadores de dispositivo u otra información de su dispositivo para los fines anteriormente indicados.

  • Anuncios y contenido personalizados, medición de anuncios y contenido, percepciones del público, y desarrollo de productos

    Los anuncios y el contenido pueden personalizarse en base a su perfil. Se pueden añadir más datos para personalizar mejor los anuncios y contenidos. Se puede medir el rendimiento de los anuncios y contenidos. Se puede obtener la percepción sobre el público que ha visto los anuncios y contenidos. Dichos datos pueden usarse para desarrollar o mejorar la experiencia del usuario, sistemas y software.

Al hacer clic en ‘Estoy De Acuerdo’ usted permitirá el uso de las cookies, identificadores de dispositivo, balizas web u otras tecnologías similares indicadas. Su configuración puede cambiarse desde el navegador de su dispositivo.

Para ciertos fines, los intereses legítimos pueden ser considerados por encima del consentimiento. Puede leer más sobre ello en nuestra Política de Privacidad y Cookies.